Hourly Weather Roundup
Issued by NWS Central Illinois

Home | Current Version | Previous Version | Text Only | Print | Product List | Glossary On
Versions: 1 2 3 4 5 6 7 8 9 10 11 12 13 14 15 16 17 18 19 20 21 22 23 24 25 26 27 28 29 30 31 32 33 34 35 36 37 38 39 40 41 42 43 44 45 46 47 48 49 50
000
NZUS43 KILX 171810
HWRILX

Area Weather Roundup
National Weather Service Lincoln IL
1200 PM CST WED JAN 17 2018

NOTE:  "FAIR" indicates few or no clouds below 12,000 feet, with
       no sigificant weather and/or obstructions to visibility.


CITY           SKY/WX    TMP DP  RH WIND       PRES   REMARKS
Bloomington    FAIR      15   7  70 SW12      30.56F WCI   2
6HR MIN TEMP:  -2; 6HR MAX TEMP:  16; 6HR PCP: TRACE;

Champaign      FAIR      10   6  84 W13       30.58F WCI  -5
6HR MIN TEMP:  -5; 6HR MAX TEMP:  10;

Danville       FAIR      11   4  73 SW8       30.55F WCI  -1
6HR MIN TEMP:  -4; 6HR MAX TEMP:  11;

Decatur        FAIR      14   6  70 W8        30.60F WCI   3
6HR MIN TEMP:   0; 6HR MAX TEMP:  14;

Effingham      FAIR      15   6  68 W5        30.65F WCI   8
6HR MIN TEMP:  -1; 6HR MAX TEMP:  15;

Flora          FAIR      16   6  65 W5        30.67F WCI   8
6HR MIN TEMP:   6; 6HR MAX TEMP:  16;

Galesburg      FAIR      16  10  76 SW9       30.57F WCI   4
Jacksonville   SUNNY     14   6  70 SW10      30.63F WCI   1
6HR MIN TEMP:  -2; 6HR MAX TEMP:  14;

Lacon          FAIR      14   5  67 SW8       30.57F WCI   3
6HR MIN TEMP:  -3; 6HR MAX TEMP:  14;

Lawrenceville  FAIR      12   2  64 W5        30.66F WCI   4
6HR MIN TEMP:  -4; 6HR MAX TEMP:  12; 6HR PCP: TRACE;

Litchfield     SUNNY     16   8  70 SW7       30.63F WCI   6
6HR MIN TEMP:   0; 6HR MAX TEMP:  16;

$$


CITY           SKY/WX    TMP DP  RH WIND       PRES   REMARKS
Lincoln        FAIR      14   7  71 SW6       30.61F WCI   5
6HR MIN TEMP:   1; 6HR MAX TEMP:  15;

Macomb         SUNNY     16   8  72 SW8       30.60F WCI   5
6HR MIN TEMP:  -3; 6HR MAX TEMP:  16;

Mattoon        FAIR      12   5  73 W7        30.60F WCI   1
6HR MIN TEMP:  -2; 6HR MAX TEMP:  12;

Mt Carmel AP   FAIR      11   2  67 SW3       30.66F
6HR MIN TEMP:  -4; 6HR MAX TEMP:  11;

Olney-Noble AP FAIR      13   2  61 W6        30.66F WCI   3
Paris AP       LGT SNOW   9   5  82 W7        30.61F WCI  -2
6HR MIN TEMP:  -5; 6HR MAX TEMP:   9;

Peoria         FAIR      14   5  67 SW8       30.59F WCI   3
6HR MIN TEMP:  -3; 6HR MAX TEMP:  14;

Pontiac        FAIR      12  10  92 SW9       30.58F WCI  -1
6HR MIN TEMP:  -4; 6HR MAX TEMP:  12;

Rantoul        FAIR      14   9  83 W10       30.57F WCI   1
6HR MIN TEMP:  -1; 6HR MAX TEMP:  14;

Robinson       FAIR      10   3  72 CALM      30.66F
6HR MIN TEMP:  -6; 6HR MAX TEMP:  10;

Springfield    FAIR      16   8  71 W12       30.63F WCI   3
6HR MIN TEMP:  -4; 6HR MAX TEMP:  16;

Taylorville    FAIR      14   8  75 W8        30.63F WCI   3
6HR MIN TEMP:  -3; 6HR MAX TEMP:  14;

$$

...REGIONAL REPORTS...


CITY           SKY/WX    TMP DP  RH WIND       PRES   REMARKS
Chicago O`Hare FAIR      16   7  67 SW13      30.48F WCI   2
Kankakee       FAIR      11   5  76 W9        30.57F WCI  -2
Moline         FAIR      16   7  67 SW13      30.54F WCI   2
Mount Sterling SUNNY     14   6  69 W7        30.61F WCI   4
Mount Vernon   FAIR      19   9  65 W6        30.67F WCI  11
Pittsfield     SUNNY     16   7  67 W9        30.63F WCI   4
Quincy         SUNNY     14   6  70 SW12      30.60F WCI   0
Rockford       FAIR      12   5  73 SW8       30.49F WCI   0
$$


CITY           SKY/WX    TMP DP  RH WIND       PRES   REMARKS
Burlington     SUNNY     14   7  73 S10       30.56F WCI   1
Cedar Rapids   FAIR      16   7  67 SW15      30.48F WCI   1
Des Moines     MOSUNNY   20   6  55 SW23G30   30.49F WCI   3
Kirksville     SUNNY     17   9  70 SW8       30.59F WCI   7
Ottumwa        SUNNY     19   8  62 SW15      30.52F WCI   5
St Louis       SUNNY     18   7  62 W9        30.67F WCI   7
$$


CITY           SKY/WX    TMP DP  RH WIND       PRES   REMARKS
Terre Haute    FAIR      12   3  67 SW6       30.61F WCI   3
Evansville     FAIR      15   6  67 CALM      30.67F
Indianapolis   FAIR      11   4  73 SW8       30.56F WCI  -1
Lafayette      FAIR      12   6  77 W8        30.56F WCI   0
Madison        FAIR      16   6  65 SW12G20   30.39F WCI   3
Milwaukee      FAIR      20   9  62 SW13G22   30.39F WCI   7
$$





USA.gov is the U.S. government's official web portal to all federal, state and local government web resources and services.